Year,Month,Day,Hour,Minute,Value (Times are PST for temperature in C)
2013,08,25,00,00,14.20
2013,08,25,00,01,14.20
2013,08,25,00,02,14.20
2013,08,25,00,03,14.20
2013,08,25,00,04,14.20
2013,08,25,00,05,14.20
2013,08,25,00,06,14.10
2013,08,25,00,07,14.10
2013,08,25,00,08,14.10
2013,08,25,00,09,14.00
2013,08,25,00,10,14.00
2013,08,25,00,11,14.00
2013,08,25,00,12,14.00
2013,08,25,00,13,13.90
2013,08,25,00,14,13.90
2013,08,25,00,15,13.90
2013,08,25,00,16,13.90
2013,08,25,00,17,13.80
2013,08,25,00,18,13.80
2013,08,25,00,19,13.80
2013,08,25,00,20,13.70
2013,08,25,00,21,13.70
2013,08,25,00,22,13.70
2013,08,25,00,23,13.70
2013,08,25,00,24,13.70
2013,08,25,00,25,13.70
2013,08,25,00,26,13.70
2013,08,25,00,27,13.60
2013,08,25,00,28,13.60
2013,08,25,00,29,13.60
2013,08,25,00,30,13.60
2013,08,25,00,31,13.50
2013,08,25,00,32,13.50
2013,08,25,00,33,13.50
2013,08,25,00,34,13.50
2013,08,25,00,35,13.40
2013,08,25,00,36,13.40
2013,08,25,00,37,13.40
2013,08,25,00,38,13.40
2013,08,25,00,39,13.30
2013,08,25,00,40,13.30
2013,08,25,00,41,13.30
2013,08,25,00,42,13.30
2013,08,25,00,43,13.30
2013,08,25,00,44,13.30
2013,08,25,00,45,13.30
2013,08,25,00,46,13.20
2013,08,25,00,47,13.20
2013,08,25,00,48,13.20
2013,08,25,00,49,13.20
2013,08,25,00,50,13.20
2013,08,25,00,51,13.20
2013,08,25,00,52,13.10
2013,08,25,00,53,13.10
2013,08,25,00,54,13.10
2013,08,25,00,55,13.10
2013,08,25,00,56,13.10
2013,08,25,00,57,13.00
2013,08,25,00,58,13.00
2013,08,25,00,59,13.00
2013,08,25,01,00,13.00
2013,08,25,01,01,13.00
2013,08,25,01,02,12.90
2013,08,25,01,03,12.90
2013,08,25,01,04,12.90
2013,08,25,01,05,12.90
2013,08,25,01,06,12.90
2013,08,25,01,07,12.80
2013,08,25,01,08,12.80
2013,08,25,01,09,12.80
2013,08,25,01,10,12.80
2013,08,25,01,11,12.80
2013,08,25,01,12,12.80
2013,08,25,01,13,12.70
2013,08,25,01,14,12.70
2013,08,25,01,15,12.70
2013,08,25,01,16,12.60
2013,08,25,01,17,12.60
2013,08,25,01,18,12.60
2013,08,25,01,19,12.50
2013,08,25,01,20,12.50
2013,08,25,01,21,12.40
2013,08,25,01,22,12.40
2013,08,25,01,23,12.40
2013,08,25,01,24,12.40
2013,08,25,01,25,12.40
2013,08,25,01,26,12.30
2013,08,25,01,27,12.30
2013,08,25,01,28,12.30
2013,08,25,01,29,12.30
2013,08,25,01,30,12.30
2013,08,25,01,31,12.30
2013,08,25,01,32,12.30
2013,08,25,01,33,12.30
2013,08,25,01,34,12.20
2013,08,25,01,35,12.20
2013,08,25,01,36,12.20
2013,08,25,01,37,12.30
2013,08,25,01,38,12.30
2013,08,25,01,39,12.30
2013,08,25,01,40,12.30
2013,08,25,01,41,12.20
2013,08,25,01,42,12.20
2013,08,25,01,43,12.20
2013,08,25,01,44,12.20
2013,08,25,01,45,12.20
2013,08,25,01,46,12.20
2013,08,25,01,47,12.10
2013,08,25,01,48,12.10
2013,08,25,01,49,12.10
2013,08,25,01,50,12.10
2013,08,25,01,51,12.00
2013,08,25,01,52,12.00
2013,08,25,01,53,12.00
2013,08,25,01,54,12.00
2013,08,25,01,55,12.00
2013,08,25,01,56,12.00
2013,08,25,01,57,12.00
2013,08,25,01,58,12.00
2013,08,25,01,59,11.90
2013,08,25,02,00,11.90
2013,08,25,02,01,11.90
2013,08,25,02,02,11.90
2013,08,25,02,03,11.90
2013,08,25,02,04,11.90
2013,08,25,02,05,11.90
2013,08,25,02,06,11.90
2013,08,25,02,07,11.90
2013,08,25,02,08,11.90
2013,08,25,02,09,11.90
2013,08,25,02,10,12.00
2013,08,25,02,11,12.00
2013,08,25,02,12,12.00
2013,08,25,02,13,12.10
2013,08,25,02,14,12.10
2013,08,25,02,15,12.20
2013,08,25,02,16,12.20
2013,08,25,02,17,12.20
2013,08,25,02,18,12.20
2013,08,25,02,19,12.20
2013,08,25,02,20,12.20
2013,08,25,02,21,12.20
2013,08,25,02,22,12.20
2013,08,25,02,23,12.10
2013,08,25,02,24,12.10
2013,08,25,02,25,12.10
2013,08,25,02,26,12.00
2013,08,25,02,27,12.00
2013,08,25,02,28,12.00
2013,08,25,02,29,11.90
2013,08,25,02,30,11.90
2013,08,25,02,31,11.90
2013,08,25,02,32,11.80
2013,08,25,02,33,11.80
2013,08,25,02,34,11.80
2013,08,25,02,35,11.80
2013,08,25,02,36,11.80
2013,08,25,02,37,11.80
2013,08,25,02,38,11.80
2013,08,25,02,39,11.70
2013,08,25,02,40,11.70
2013,08,25,02,41,11.70
2013,08,25,02,42,11.70
2013,08,25,02,43,11.60
2013,08,25,02,44,11.60
2013,08,25,02,45,11.60
2013,08,25,02,46,11.60
2013,08,25,02,47,11.60
2013,08,25,02,48,11.60
2013,08,25,02,49,11.60
2013,08,25,02,50,11.60
2013,08,25,02,51,11.60
2013,08,25,02,52,11.60
2013,08,25,02,53,11.60
2013,08,25,02,54,11.60
2013,08,25,02,55,11.60
2013,08,25,02,56,11.60
2013,08,25,02,57,11.60
2013,08,25,02,58,11.60
2013,08,25,02,59,11.60
2013,08,25,03,00,11.60
2013,08,25,03,01,11.60
2013,08,25,03,02,11.60
2013,08,25,03,03,11.60
2013,08,25,03,04,11.60
2013,08,25,03,05,11.60
2013,08,25,03,06,11.60
2013,08,25,03,07,11.60
2013,08,25,03,08,11.60
2013,08,25,03,09,11.70
2013,08,25,03,10,11.70
2013,08,25,03,11,11.80
2013,08,25,03,12,11.80
2013,08,25,03,13,11.80
2013,08,25,03,14,11.80
2013,08,25,03,15,11.80
2013,08,25,03,16,11.80
2013,08,25,03,17,11.90
2013,08,25,03,18,11.90
2013,08,25,03,19,11.90
2013,08,25,03,20,11.90
2013,08,25,03,21,11.90
2013,08,25,03,22,11.90
2013,08,25,03,23,11.90
2013,08,25,03,24,11.90
2013,08,25,03,25,11.90
2013,08,25,03,26,11.90
2013,08,25,03,27,11.80
2013,08,25,03,28,11.80
2013,08,25,03,29,11.80
2013,08,25,03,30,11.80
2013,08,25,03,31,11.80
2013,08,25,03,32,11.80
2013,08,25,03,33,11.80
2013,08,25,03,34,11.70
2013,08,25,03,35,11.70
2013,08,25,03,36,11.70
2013,08,25,03,37,11.60
2013,08,25,03,38,11.60
2013,08,25,03,39,11.60
2013,08,25,03,40,11.60
2013,08,25,03,41,11.60
2013,08,25,03,42,11.60
2013,08,25,03,43,11.60
2013,08,25,03,44,11.60
2013,08,25,03,45,11.60
2013,08,25,03,46,11.60
2013,08,25,03,47,11.60
2013,08,25,03,48,11.60
2013,08,25,03,49,11.60
2013,08,25,03,50,11.60
2013,08,25,03,51,11.60
2013,08,25,03,52,11.60
2013,08,25,03,53,11.60
2013,08,25,03,54,11.60
2013,08,25,03,55,11.60
2013,08,25,03,56,11.60
2013,08,25,03,57,11.60
2013,08,25,03,58,11.60
2013,08,25,03,59,11.60
2013,08,25,04,00,11.70
2013,08,25,04,01,11.70
2013,08,25,04,02,11.70
2013,08,25,04,03,11.70
2013,08,25,04,04,11.70
2013,08,25,04,05,11.70
2013,08,25,04,06,11.70
2013,08,25,04,07,11.70
2013,08,25,04,08,11.70
2013,08,25,04,09,11.70
2013,08,25,04,10,11.70
2013,08,25,04,11,11.70
2013,08,25,04,12,11.70
2013,08,25,04,13,11.60
2013,08,25,04,14,11.60
2013,08,25,04,15,11.60
2013,08,25,04,16,11.60
2013,08,25,04,17,11.60
2013,08,25,04,18,11.70
2013,08,25,04,19,11.70
2013,08,25,04,20,11.70
2013,08,25,04,21,11.70
2013,08,25,04,22,11.70
2013,08,25,04,23,11.60
2013,08,25,04,24,11.60
2013,08,25,04,25,11.60
2013,08,25,04,26,11.60
2013,08,25,04,27,11.60
2013,08,25,04,28,11.60
2013,08,25,04,29,11.60
2013,08,25,04,30,11.60
2013,08,25,04,31,11.60
2013,08,25,04,32,11.60
2013,08,25,04,33,11.60
2013,08,25,04,34,11.60
2013,08,25,04,35,11.60
2013,08,25,04,36,11.60
2013,08,25,04,37,11.60
2013,08,25,04,38,11.60
2013,08,25,04,39,11.60
2013,08,25,04,40,11.60
2013,08,25,04,41,11.60
2013,08,25,04,42,11.60
2013,08,25,04,43,11.60
2013,08,25,04,44,11.60
2013,08,25,04,45,11.60
2013,08,25,04,46,11.60
2013,08,25,04,47,11.60
2013,08,25,04,48,11.60
2013,08,25,04,49,11.60
2013,08,25,04,50,11.60
2013,08,25,04,51,11.60
2013,08,25,04,52,11.60
2013,08,25,04,53,11.60
2013,08,25,04,54,11.60
2013,08,25,04,55,11.70
2013,08,25,04,56,11.70
2013,08,25,04,57,11.70
2013,08,25,04,58,11.70
2013,08,25,04,59,11.70
2013,08,25,05,00,11.70
2013,08,25,05,01,11.70
2013,08,25,05,02,11.70
2013,08,25,05,03,11.70
2013,08,25,05,04,11.70
2013,08,25,05,05,11.70
2013,08,25,05,06,11.70
2013,08,25,05,07,11.70
2013,08,25,05,08,11.70
2013,08,25,05,09,11.70
2013,08,25,05,10,11.80
2013,08,25,05,11,11.80
2013,08,25,05,12,11.80
2013,08,25,05,13,11.70
2013,08,25,05,14,11.70
2013,08,25,05,15,11.70
2013,08,25,05,16,11.80
2013,08,25,05,17,11.80
2013,08,25,05,18,11.80
2013,08,25,05,19,11.80
2013,08,25,05,20,11.80
2013,08,25,05,21,11.80
2013,08,25,05,22,11.80
2013,08,25,05,23,11.80
2013,08,25,05,24,11.80
2013,08,25,05,25,11.80
2013,08,25,05,26,11.80
2013,08,25,05,27,11.80
2013,08,25,05,28,11.80
2013,08,25,05,29,11.80
2013,08,25,05,30,11.80
2013,08,25,05,31,11.80
2013,08,25,05,32,11.80
2013,08,25,05,33,11.80
2013,08,25,05,34,11.80
2013,08,25,05,35,11.80
2013,08,25,05,36,11.80
2013,08,25,05,37,11.90
2013,08,25,05,38,11.90
2013,08,25,05,39,11.90
2013,08,25,05,40,11.90
2013,08,25,05,41,11.90
2013,08,25,05,42,11.90
2013,08,25,05,43,11.90
2013,08,25,05,44,11.90
2013,08,25,05,45,11.90
2013,08,25,05,46,11.90
2013,08,25,05,47,11.90
2013,08,25,05,48,11.80
2013,08,25,05,49,11.80
2013,08,25,05,50,11.80
2013,08,25,05,51,11.80
2013,08,25,05,52,11.80
2013,08,25,05,53,11.80
2013,08,25,05,54,11.80
2013,08,25,05,55,11.80
2013,08,25,05,56,11.70
2013,08,25,05,57,11.70
2013,08,25,05,58,11.70
2013,08,25,05,59,11.60
2013,08,25,06,00,11.60
2013,08,25,06,01,11.60
2013,08,25,06,02,11.60
2013,08,25,06,03,11.60
2013,08,25,06,04,11.60
2013,08,25,06,05,11.60
2013,08,25,06,06,11.60
2013,08,25,06,07,11.60
2013,08,25,06,08,11.60
2013,08,25,06,09,11.50
2013,08,25,06,10,11.40
2013,08,25,06,11,11.40
2013,08,25,06,12,11.40
2013,08,25,06,13,11.40
2013,08,25,06,14,11.40
2013,08,25,06,15,11.40
2013,08,25,06,16,11.40
2013,08,25,06,17,11.40
2013,08,25,06,18,11.40
2013,08,25,06,19,11.40
2013,08,25,06,20,11.40
2013,08,25,06,21,11.40
2013,08,25,06,22,11.30
2013,08,25,06,23,11.30
2013,08,25,06,24,11.30
2013,08,25,06,25,11.30
2013,08,25,06,26,11.30
2013,08,25,06,27,11.30
2013,08,25,06,28,11.30
2013,08,25,06,29,11.30
2013,08,25,06,30,11.30
2013,08,25,06,31,11.30
2013,08,25,06,32,11.30
2013,08,25,06,33,11.30
2013,08,25,06,34,11.30
2013,08,25,06,35,11.30
2013,08,25,06,36,11.30
2013,08,25,06,37,11.30
2013,08,25,06,38,11.30
2013,08,25,06,39,11.30
2013,08,25,06,40,11.30
2013,08,25,06,41,11.30
2013,08,25,06,42,11.30
2013,08,25,06,43,11.30
2013,08,25,06,44,11.20
2013,08,25,06,45,11.20
2013,08,25,06,46,11.20
2013,08,25,06,47,11.20
2013,08,25,06,48,11.20
2013,08,25,06,49,11.20
2013,08,25,06,50,11.20
2013,08,25,06,51,11.20
2013,08,25,06,52,11.20
2013,08,25,06,53,11.20
2013,08,25,06,54,11.20
2013,08,25,06,55,11.20
2013,08,25,06,56,11.20
2013,08,25,06,57,11.10
2013,08,25,06,58,11.10
2013,08,25,06,59,11.10
2013,08,25,07,00,11.10
2013,08,25,07,01,11.10
2013,08,25,07,02,11.10
2013,08,25,07,03,11.10
2013,08,25,07,04,11.10
2013,08,25,07,05,11.10
2013,08,25,07,06,11.10
2013,08,25,07,07,11.10
2013,08,25,07,08,11.20
2013,08,25,07,09,11.20
2013,08,25,07,10,11.20
2013,08,25,07,11,11.20
2013,08,25,07,12,11.20
2013,08,25,07,13,11.20
2013,08,25,07,14,11.20
2013,08,25,07,15,11.20
2013,08,25,07,16,11.20
2013,08,25,07,17,11.20
2013,08,25,07,18,11.20
2013,08,25,07,19,11.20
2013,08,25,07,20,11.20
2013,08,25,07,21,11.20
2013,08,25,07,22,11.20
2013,08,25,07,23,11.20
2013,08,25,07,24,11.20
2013,08,25,07,25,11.30
2013,08,25,07,26,11.30
2013,08,25,07,27,11.30
2013,08,25,07,28,11.30
2013,08,25,07,29,11.40
2013,08,25,07,30,11.40
2013,08,25,07,31,11.40
2013,08,25,07,32,11.40
2013,08,25,07,33,11.50
2013,08,25,07,34,11.60
2013,08,25,07,35,11.60
2013,08,25,07,36,11.60
2013,08,25,07,37,11.60
2013,08,25,07,38,11.60
2013,08,25,07,39,11.70
2013,08,25,07,40,11.70
2013,08,25,07,41,11.70
2013,08,25,07,42,11.80
2013,08,25,07,43,11.80
2013,08,25,07,44,11.80
2013,08,25,07,45,11.80
2013,08,25,07,46,11.90
2013,08,25,07,47,11.90
2013,08,25,07,48,11.90
2013,08,25,07,49,12.00
2013,08,25,07,50,12.00
2013,08,25,07,51,12.10
2013,08,25,07,52,12.10
2013,08,25,07,53,12.20
2013,08,25,07,54,12.20
2013,08,25,07,55,12.30
2013,08,25,07,56,12.30
2013,08,25,07,57,12.30
2013,08,25,07,58,12.40
2013,08,25,07,59,12.40
2013,08,25,08,00,12.50
2013,08,25,08,01,12.50
2013,08,25,08,02,12.50
2013,08,25,08,03,12.60
2013,08,25,08,04,12.60
2013,08,25,08,05,12.60
2013,08,25,08,06,12.70
2013,08,25,08,07,12.70
2013,08,25,08,08,12.70
2013,08,25,08,09,12.80
2013,08,25,08,10,12.80
2013,08,25,08,11,12.80
2013,08,25,08,12,12.80
2013,08,25,08,13,12.80
2013,08,25,08,14,12.90
2013,08,25,08,15,13.00
2013,08,25,08,16,13.00
2013,08,25,08,17,13.10
2013,08,25,08,18,13.20
2013,08,25,08,19,13.20
2013,08,25,08,20,13.30
2013,08,25,08,21,13.30
2013,08,25,08,22,13.40
2013,08,25,08,23,13.50
2013,08,25,08,24,13.50
2013,08,25,08,25,13.60
2013,08,25,08,26,13.70
2013,08,25,08,27,13.70
2013,08,25,08,28,13.80
2013,08,25,08,29,13.90
2013,08,25,08,30,14.00
2013,08,25,08,31,14.10
2013,08,25,08,32,14.20
2013,08,25,08,33,14.20
2013,08,25,08,34,14.30
2013,08,25,08,35,14.40
2013,08,25,08,36,14.50
2013,08,25,08,37,14.60
2013,08,25,08,38,14.60
2013,08,25,08,39,14.70
2013,08,25,08,40,14.80
2013,08,25,08,41,14.80
2013,08,25,08,42,14.90
2013,08,25,08,43,14.90
2013,08,25,08,44,15.00
2013,08,25,08,45,15.00
2013,08,25,08,46,15.00
2013,08,25,08,47,15.10
2013,08,25,08,48,15.20
2013,08,25,08,49,15.20
2013,08,25,08,50,15.30
2013,08,25,08,51,15.30
2013,08,25,08,52,15.30
2013,08,25,08,53,15.30
2013,08,25,08,54,15.40
2013,08,25,08,55,15.50
2013,08,25,08,56,15.50
2013,08,25,08,57,15.60
2013,08,25,08,58,15.70
2013,08,25,08,59,15.70
2013,08,25,09,00,15.80
2013,08,25,09,01,15.90
2013,08,25,09,02,16.00
2013,08,25,09,03,16.10
2013,08,25,09,04,16.20
2013,08,25,09,05,16.30
2013,08,25,09,06,16.40
2013,08,25,09,07,16.50
2013,08,25,09,08,16.60
2013,08,25,09,09,16.70
2013,08,25,09,10,16.70
2013,08,25,09,11,16.70
2013,08,25,09,12,16.80
2013,08,25,09,13,16.80
2013,08,25,09,14,16.90
2013,08,25,09,15,16.90
2013,08,25,09,16,17.00
2013,08,25,09,17,17.00
2013,08,25,09,18,16.90
2013,08,25,09,19,16.90
2013,08,25,09,20,17.00
2013,08,25,09,21,17.00
2013,08,25,09,22,17.10
2013,08,25,09,23,17.20
2013,08,25,09,24,17.30
2013,08,25,09,25,17.30
2013,08,25,09,26,17.30
2013,08,25,09,27,17.30
2013,08,25,09,28,17.40
2013,08,25,09,29,17.40
2013,08,25,09,30,17.40
2013,08,25,09,31,17.50
2013,08,25,09,32,17.50
2013,08,25,09,33,17.60
2013,08,25,09,34,17.60
2013,08,25,09,35,17.70
2013,08,25,09,36,17.80
2013,08,25,09,37,17.90
2013,08,25,09,38,17.90
2013,08,25,09,39,17.90
2013,08,25,09,40,18.10
2013,08,25,09,41,18.10
2013,08,25,09,42,18.10
2013,08,25,09,43,18.10
2013,08,25,09,44,18.10
2013,08,25,09,45,18.20
2013,08,25,09,46,18.20
2013,08,25,09,47,18.30
2013,08,25,09,48,18.40
2013,08,25,09,49,18.50
2013,08,25,09,50,18.50
2013,08,25,09,51,18.50
2013,08,25,09,52,18.50
2013,08,25,09,53,18.40
2013,08,25,09,54,18.40
2013,08,25,09,55,18.40
2013,08,25,09,56,18.40
2013,08,25,09,57,18.40
2013,08,25,09,58,18.40
2013,08,25,09,59,18.40
2013,08,25,10,00,18.40
2013,08,25,10,01,18.40
2013,08,25,10,02,18.40
2013,08,25,10,03,18.50
2013,08,25,10,04,18.60
2013,08,25,10,05,18.60
2013,08,25,10,06,18.70
2013,08,25,10,07,18.80
2013,08,25,10,08,18.90
2013,08,25,10,09,18.90
2013,08,25,10,10,19.00
2013,08,25,10,11,19.10
2013,08,25,10,12,19.10
2013,08,25,10,13,19.10
2013,08,25,10,14,19.00
2013,08,25,10,15,18.90
2013,08,25,10,16,18.90
2013,08,25,10,17,18.90
2013,08,25,10,18,18.90
2013,08,25,10,19,18.90
2013,08,25,10,20,18.90
2013,08,25,10,21,18.90
2013,08,25,10,22,18.90
2013,08,25,10,23,18.80
2013,08,25,10,24,18.80
2013,08,25,10,25,18.80
2013,08,25,10,26,18.80
2013,08,25,10,27,18.80
2013,08,25,10,28,18.80
2013,08,25,10,29,18.80
2013,08,25,10,30,18.90
2013,08,25,10,31,19.10
2013,08,25,10,32,19.10
2013,08,25,10,33,19.10
2013,08,25,10,34,19.20
2013,08,25,10,35,19.30
2013,08,25,10,36,19.40
2013,08,25,10,37,19.40
2013,08,25,10,38,19.40
2013,08,25,10,39,19.40
2013,08,25,10,40,19.30
2013,08,25,10,41,19.30
2013,08,25,10,42,19.40
2013,08,25,10,43,19.40
2013,08,25,10,44,19.30
2013,08,25,10,45,19.20
2013,08,25,10,46,19.30
2013,08,25,10,47,19.30
2013,08,25,10,48,19.40
2013,08,25,10,49,19.50
2013,08,25,10,50,19.50
2013,08,25,10,51,19.40
2013,08,25,10,52,19.50
2013,08,25,10,53,19.50
2013,08,25,10,54,19.40
2013,08,25,10,55,19.30
2013,08,25,10,56,19.40
2013,08,25,10,57,19.40
2013,08,25,10,58,19.50
2013,08,25,10,59,19.60
2013,08,25,11,00,19.70
2013,08,25,11,01,19.80
2013,08,25,11,02,19.80
2013,08,25,11,03,19.80
2013,08,25,11,04,19.70
2013,08,25,11,05,19.50
2013,08,25,11,06,19.40
2013,08,25,11,07,19.20
2013,08,25,11,08,19.20
2013,08,25,11,09,19.20
2013,08,25,11,10,19.30
2013,08,25,11,11,19.40
2013,08,25,11,12,19.50
2013,08,25,11,13,19.50
2013,08,25,11,14,19.50
2013,08,25,11,15,19.60
2013,08,25,11,16,19.60
2013,08,25,11,17,19.60
2013,08,25,11,18,19.40
2013,08,25,11,19,19.40
2013,08,25,11,20,19.20
2013,08,25,11,21,19.20
2013,08,25,11,22,19.30
2013,08,25,11,23,19.20
2013,08,25,11,24,19.20
2013,08,25,11,25,19.20
2013,08,25,11,26,19.10
2013,08,25,11,27,19.00
2013,08,25,11,28,18.80
2013,08,25,11,29,18.80
2013,08,25,11,30,18.60
2013,08,25,11,31,18.50
2013,08,25,11,32,18.40
2013,08,25,11,33,18.40
2013,08,25,11,34,18.50
2013,08,25,11,35,18.50
2013,08,25,11,36,18.60
2013,08,25,11,37,18.80
2013,08,25,11,38,18.80
2013,08,25,11,39,18.70
2013,08,25,11,40,18.70
2013,08,25,11,41,18.60
2013,08,25,11,42,18.60
2013,08,25,11,43,18.50
2013,08,25,11,44,18.50
2013,08,25,11,45,18.60
2013,08,25,11,46,18.60
2013,08,25,11,47,18.50
2013,08,25,11,48,18.50
2013,08,25,11,49,18.50
2013,08,25,11,50,18.50
2013,08,25,11,51,18.50
2013,08,25,11,52,18.50
2013,08,25,11,53,18.50
2013,08,25,11,54,18.50
2013,08,25,11,55,18.60
2013,08,25,11,56,18.70
2013,08,25,11,57,18.90
2013,08,25,11,58,19.00
2013,08,25,11,59,19.10
2013,08,25,12,00,19.10
2013,08,25,12,01,18.90
2013,08,25,12,02,18.80
2013,08,25,12,03,18.80
2013,08,25,12,04,18.90
2013,08,25,12,05,18.80
2013,08,25,12,06,18.60
2013,08,25,12,07,18.50
2013,08,25,12,08,18.50
2013,08,25,12,09,18.40
2013,08,25,12,10,18.40
2013,08,25,12,11,18.30
2013,08,25,12,12,18.40
2013,08,25,12,13,18.50
2013,08,25,12,14,18.60
2013,08,25,12,15,18.70
2013,08,25,12,16,18.90
2013,08,25,12,17,19.10
2013,08,25,12,18,19.10
2013,08,25,12,19,19.10
2013,08,25,12,20,19.10
2013,08,25,12,21,19.10
2013,08,25,12,22,19.10
2013,08,25,12,23,19.30
2013,08,25,12,24,19.40
2013,08,25,12,25,19.40
2013,08,25,12,26,19.40
2013,08,25,12,27,19.50
2013,08,25,12,28,19.60
2013,08,25,12,29,19.80
2013,08,25,12,30,19.90
2013,08,25,12,31,20.00
2013,08,25,12,32,20.00
2013,08,25,12,33,19.90
2013,08,25,12,34,19.70
2013,08,25,12,35,19.60
2013,08,25,12,36,19.60
2013,08,25,12,37,19.70
2013,08,25,12,38,19.70
2013,08,25,12,39,19.70
2013,08,25,12,40,19.70
2013,08,25,12,41,19.90
2013,08,25,12,42,20.00
2013,08,25,12,43,20.10
2013,08,25,12,44,20.10
2013,08,25,12,45,20.10
2013,08,25,12,46,20.20
2013,08,25,12,47,20.20
2013,08,25,12,48,20.20
2013,08,25,12,49,20.10
2013,08,25,12,50,20.10
2013,08,25,12,51,20.10
2013,08,25,12,52,20.10
2013,08,25,12,53,20.10
2013,08,25,12,54,20.20
2013,08,25,12,55,20.30
2013,08,25,12,56,20.20
2013,08,25,12,57,20.10
2013,08,25,12,58,19.90
2013,08,25,12,59,19.90
2013,08,25,13,00,19.90
2013,08,25,13,01,20.00
2013,08,25,13,02,20.10
2013,08,25,13,03,20.20
2013,08,25,13,04,20.10
2013,08,25,13,05,20.10
2013,08,25,13,06,20.10
2013,08,25,13,07,19.90
2013,08,25,13,08,20.10
2013,08,25,13,09,20.20
2013,08,25,13,10,20.40
2013,08,25,13,11,20.40
2013,08,25,13,12,20.50
2013,08,25,13,13,20.50
2013,08,25,13,14,20.40
2013,08,25,13,15,20.20
2013,08,25,13,16,19.90
2013,08,25,13,17,19.70
2013,08,25,13,18,19.70
2013,08,25,13,19,19.60
2013,08,25,13,20,19.70
2013,08,25,13,21,19.70
2013,08,25,13,22,19.70
2013,08,25,13,23,19.70
2013,08,25,13,24,19.60
2013,08,25,13,25,19.40
2013,08,25,13,26,19.40
2013,08,25,13,27,19.30
2013,08,25,13,28,19.20
2013,08,25,13,29,19.10
2013,08,25,13,30,19.00
2013,08,25,13,31,18.90
2013,08,25,13,32,19.00
2013,08,25,13,33,19.20
2013,08,25,13,34,19.40
2013,08,25,13,35,19.40
2013,08,25,13,36,19.50
2013,08,25,13,37,19.50
2013,08,25,13,38,19.60
2013,08,25,13,39,19.60
2013,08,25,13,40,19.50
2013,08,25,13,41,19.40
2013,08,25,13,42,19.40
2013,08,25,13,43,19.20
2013,08,25,13,44,19.10
2013,08,25,13,45,19.10
2013,08,25,13,46,19.10
2013,08,25,13,47,19.10
2013,08,25,13,48,19.10
2013,08,25,13,49,19.10
2013,08,25,13,50,19.10
2013,08,25,13,51,19.20
2013,08,25,13,52,19.30
2013,08,25,13,53,19.40
2013,08,25,13,54,19.40
2013,08,25,13,55,19.50
2013,08,25,13,56,19.50
2013,08,25,13,57,19.40
2013,08,25,13,58,19.10
2013,08,25,13,59,18.90
2013,08,25,14,00,18.80
2013,08,25,14,01,18.80
2013,08,25,14,02,18.80
2013,08,25,14,03,18.90
2013,08,25,14,04,18.90
2013,08,25,14,05,18.90
2013,08,25,14,06,18.90
2013,08,25,14,07,18.90
2013,08,25,14,08,18.80
2013,08,25,14,09,18.80
2013,08,25,14,10,18.90
2013,08,25,14,11,19.00
2013,08,25,14,12,19.10
2013,08,25,14,13,19.20
2013,08,25,14,14,19.30
2013,08,25,14,15,19.30
2013,08,25,14,16,19.30
2013,08,25,14,17,19.20
2013,08,25,14,18,19.20
2013,08,25,14,19,19.20
2013,08,25,14,20,19.30
2013,08,25,14,21,19.40
2013,08,25,14,22,19.50
2013,08,25,14,23,19.50
2013,08,25,14,24,19.70
2013,08,25,14,25,19.80
2013,08,25,14,26,19.90
2013,08,25,14,27,20.10
2013,08,25,14,28,20.20
2013,08,25,14,29,20.20
2013,08,25,14,30,20.20
2013,08,25,14,31,20.20
2013,08,25,14,32,20.20
2013,08,25,14,33,20.20
2013,08,25,14,34,20.20
2013,08,25,14,35,20.00
2013,08,25,14,36,19.90
2013,08,25,14,37,19.90
2013,08,25,14,38,19.90
2013,08,25,14,39,19.90
2013,08,25,14,40,19.90
2013,08,25,14,41,19.80
2013,08,25,14,42,19.70
2013,08,25,14,43,19.70
2013,08,25,14,44,19.80
2013,08,25,14,45,19.80
2013,08,25,14,46,19.90
2013,08,25,14,47,19.90
2013,08,25,14,48,20.00
2013,08,25,14,49,20.20
2013,08,25,14,50,20.30
2013,08,25,14,51,20.30
2013,08,25,14,52,20.30
2013,08,25,14,53,20.20
2013,08,25,14,54,20.20
2013,08,25,14,55,20.30
2013,08,25,14,56,20.40
2013,08,25,14,57,20.50
2013,08,25,14,58,20.60
2013,08,25,14,59,20.60
2013,08,25,15,00,20.70
2013,08,25,15,01,20.80
2013,08,25,15,02,20.90
2013,08,25,15,03,20.90
2013,08,25,15,04,20.80
2013,08,25,15,05,20.90
2013,08,25,15,06,21.00
2013,08,25,15,07,21.00
2013,08,25,15,08,21.10
2013,08,25,15,09,21.10
2013,08,25,15,10,21.10
2013,08,25,15,11,21.20
2013,08,25,15,12,21.20
2013,08,25,15,13,21.40
2013,08,25,15,14,21.40
2013,08,25,15,15,21.40
2013,08,25,15,16,21.40
2013,08,25,15,17,21.40
2013,08,25,15,18,21.40
2013,08,25,15,19,21.40
2013,08,25,15,20,21.40
2013,08,25,15,21,21.30
2013,08,25,15,22,21.40
2013,08,25,15,23,21.50
2013,08,25,15,24,21.60
2013,08,25,15,25,21.60
2013,08,25,15,26,21.60
2013,08,25,15,27,21.70
2013,08,25,15,28,21.70
2013,08,25,15,29,21.60
2013,08,25,15,30,21.60
2013,08,25,15,31,21.60
2013,08,25,15,32,21.60
2013,08,25,15,33,21.60
2013,08,25,15,34,21.60
2013,08,25,15,35,21.60
2013,08,25,15,36,21.60
2013,08,25,15,37,21.50
2013,08,25,15,38,21.40
2013,08,25,15,39,21.30
2013,08,25,15,40,21.30
2013,08,25,15,41,21.30
2013,08,25,15,42,21.40
2013,08,25,15,43,21.40
2013,08,25,15,44,21.50
2013,08,25,15,45,21.60
2013,08,25,15,46,21.70
2013,08,25,15,47,21.60
2013,08,25,15,48,21.60
2013,08,25,15,49,21.60
2013,08,25,15,50,21.60
2013,08,25,15,51,21.60
2013,08,25,15,52,21.60
2013,08,25,15,53,21.70
2013,08,25,15,54,21.70
2013,08,25,15,55,21.70
2013,08,25,15,56,21.70
2013,08,25,15,57,21.70
2013,08,25,15,58,21.70
2013,08,25,15,59,21.70
2013,08,25,16,00,21.80
2013,08,25,16,01,21.70
2013,08,25,16,02,21.80
2013,08,25,16,03,21.80
2013,08,25,16,04,21.90
2013,08,25,16,05,21.90
2013,08,25,16,06,21.90
2013,08,25,16,07,21.90
2013,08,25,16,08,21.80
2013,08,25,16,09,21.70
2013,08,25,16,10,21.60
2013,08,25,16,11,21.40
2013,08,25,16,12,21.20
2013,08,25,16,13,21.00
2013,08,25,16,14,20.90
2013,08,25,16,15,20.80
2013,08,25,16,16,20.70
2013,08,25,16,17,20.50
2013,08,25,16,18,20.40
2013,08,25,16,19,20.40
2013,08,25,16,20,20.40
2013,08,25,16,21,20.50
2013,08,25,16,22,20.50
2013,08,25,16,23,20.50
2013,08,25,16,24,20.50
2013,08,25,16,25,20.60
2013,08,25,16,26,20.60
2013,08,25,16,27,20.50
2013,08,25,16,28,20.50
2013,08,25,16,29,20.50
2013,08,25,16,30,20.50
2013,08,25,16,31,20.50
2013,08,25,16,32,20.50
2013,08,25,16,33,20.50
2013,08,25,16,34,20.50
2013,08,25,16,35,20.50
2013,08,25,16,36,20.50
2013,08,25,16,37,20.50
2013,08,25,16,38,20.50
2013,08,25,16,39,20.50
2013,08,25,16,40,20.50
2013,08,25,16,41,20.40
2013,08,25,16,42,20.40
2013,08,25,16,43,20.40
2013,08,25,16,44,20.40
2013,08,25,16,45,20.50
2013,08,25,16,46,20.50
2013,08,25,16,47,20.60
2013,08,25,16,48,20.60
2013,08,25,16,49,20.70
2013,08,25,16,50,20.70
2013,08,25,16,51,20.80
2013,08,25,16,52,20.90
2013,08,25,16,53,21.00
2013,08,25,16,54,21.00
2013,08,25,16,55,21.10
2013,08,25,16,56,21.10
2013,08,25,16,57,21.10
2013,08,25,16,58,21.10
2013,08,25,16,59,21.00
2013,08,25,17,00,21.00
2013,08,25,17,01,20.90
2013,08,25,17,02,20.90
2013,08,25,17,03,20.90
2013,08,25,17,04,20.90
2013,08,25,17,05,20.90
2013,08,25,17,06,20.80
2013,08,25,17,07,20.70
2013,08,25,17,08,20.70
2013,08,25,17,09,20.60
2013,08,25,17,10,20.60
2013,08,25,17,11,20.60
2013,08,25,17,12,20.60
2013,08,25,17,13,20.50
2013,08,25,17,14,20.50
2013,08,25,17,15,20.50
2013,08,25,17,16,20.50
2013,08,25,17,17,20.50
2013,08,25,17,18,20.50
2013,08,25,17,19,20.50